Time,TemperatureF,DewpointF,PressureIn,WindDirection,WindDirectionDegrees,WindSpeedMPH,WindSpeedGustMPH,Humidity,HourlyPrecipIn,Conditions,Clouds,dailyrainin,SolarRadiationWatts/m^2,SoftwareType,DateUTC
2013-01-09 00:00:00,54.3,26.0,29.56,WSW,246,1.7,2.5,33,-99.99,,,0.00,0,rob ver 1A,2013-01-09 07:00:00,
2013-01-09 00:05:00,54.5,25.9,29.56,WNW,293,1.3,1.7,32,-99.99,,,0.00,0,rob ver 1A,2013-01-09 07:05:00,
2013-01-09 00:10:00,54.0,26.0,29.59,NE,49,1.3,1.5,33,-99.99,,,0.00,0,rob ver 1A,2013-01-09 07:10:00,
2013-01-09 00:15:00,54.0,25.7,29.59,ESE,105,2.9,3.0,32,-99.99,,,0.00,0,rob ver 1A,2013-01-09 07:15:00,
2013-01-09 00:20:00,54.4,26.2,29.59,SSE,165,1.8,2.3,33,-99.99,,,0.00,0,rob ver 1A,2013-01-09 07:20:00,
2013-01-09 00:25:00,54.8,26.3,29.59,South,183,1.7,1.9,32,-99.99,,,0.00,0,rob ver 1A,2013-01-09 07:25:00,
2013-01-09 00:30:00,54.8,26.1,29.56,ESE,121,3.2,3.6,32,-99.99,,,0.00,0,rob ver 1B,2013-01-09 07:30:00,
2013-01-09 00:35:00,53.5,25.6,29.56,ESE,114,3.5,3.7,33,-99.99,,,0.00,0,rob ver 1A,2013-01-09 07:35:00,
2013-01-09 00:40:00,54.3,26.3,29.56,SSE,167,3.6,4.3,33,-99.99,,,0.00,0,rob ver 1A,2013-01-09 07:40:00,
2013-01-09 00:45:00,56.2,26.6,29.56,South,171,2.7,4.1,31,-99.99,,,0.00,0,rob ver 1A,2013-01-09 07:45:00,
2013-01-09 00:50:00,55.7,26.0,29.56,NNE,22,1.2,2.1,31,-99.99,,,0.00,0,rob ver 1B,2013-01-09 07:50:00,
2013-01-09 00:55:00,55.4,26.2,29.56,NNW,341,1.8,2.8,31,-99.99,,,0.00,0,rob ver 1A,2013-01-09 07:55:00,
2013-01-09 01:00:00,56.4,26.2,29.56,NW,318,5.6,6.2,31,-99.99,,,0.00,0,rob ver 1A,2013-01-09 08:00:00,
2013-01-09 01:05:00,54.7,25.8,29.56,WNW,302,7.5,8.5,32,-99.99,,,0.00,0,rob ver 1A,2013-01-09 08:05:00,
2013-01-09 01:10:00,55.0,26.1,29.56,WNW,301,8.6,10.4,32,-99.99,,,0.00,0,rob ver 1A,2013-01-09 08:10:00,
2013-01-09 01:15:00,56.2,26.3,29.56,NW,306,9.2,10.5,31,-99.99,,,0.00,0,rob ver 1A,2013-01-09 08:15:00,
2013-01-09 01:20:00,56.4,26.4,29.56,NW,313,9.0,10.4,31,-99.99,,,0.00,0,rob ver 1A,2013-01-09 08:20:00,
2013-01-09 01:25:00,56.7,26.4,29.56,NW,320,9.2,12.3,30,-99.99,,,0.00,0,rob ver 1A,2013-01-09 08:25:00,
2013-01-09 01:30:00,57.3,26.4,29.56,NNW,329,7.9,10.1,30,-99.99,,,0.00,0,rob ver 1A,2013-01-09 08:30:00,
2013-01-09 01:35:00,57.1,26.4,29.56,NNW,332,7.1,8.5,30,-99.99,,,0.00,0,rob ver 1A,2013-01-09 08:35:00,
2013-01-09 01:40:00,57.5,26.4,29.56,NNW,327,7.4,8.3,30,-99.99,,,0.00,0,rob ver 1A,2013-01-09 08:40:00,
2013-01-09 01:45:00,56.6,26.3,29.56,NW,311,6.2,7.6,30,-99.99,,,0.00,0,rob ver 1B,2013-01-09 08:45:00,
2013-01-09 01:50:00,56.3,26.2,29.56,NNW,332,3.4,4.4,31,-99.99,,,0.00,0,rob ver 1A,2013-01-09 08:50:00,
2013-01-09 01:55:00,56.3,26.2,29.56,NW,305,2.9,3.3,31,-99.99,,,0.00,0,rob ver 1A,2013-01-09 08:55:00,
2013-01-09 02:01:00,56.2,26.2,29.56,NW,310,3.9,4.1,31,-99.99,,,0.00,0,rob ver 1A,2013-01-09 09:01:00,
2013-01-09 02:06:00,55.6,26.1,29.56,NW,311,3.8,4.0,31,-99.99,,,0.00,0,rob ver 1A,2013-01-09 09:06:00,
2013-01-09 02:11:00,53.1,25.5,29.56,WNW,283,5.0,5.5,34,-99.99,,,0.00,0,rob ver 1A,2013-01-09 09:11:00,
2013-01-09 02:16:00,51.8,26.2,29.56,NW,306,4.4,4.7,36,-99.99,,,0.00,0,rob ver 1A,2013-01-09 09:16:00,
2013-01-09 02:21:00,52.8,26.0,29.56,NW,323,4.5,5.0,34,-99.99,,,0.00,0,rob ver 1B,2013-01-09 09:21:00,
2013-01-09 02:26:00,53.6,25.7,29.56,WNW,283,4.1,5.2,34,-99.99,,,0.00,0,rob ver 1A,2013-01-09 09:26:00,
2013-01-09 02:31:00,52.3,26.0,29.56,WNW,288,4.5,5.3,35,-99.99,,,0.00,0,rob ver 1A,2013-01-09 09:31:00,
2013-01-09 02:36:00,53.2,25.9,29.56,NW,304,6.8,7.2,34,-99.99,,,0.00,0,rob ver 1A,2013-01-09 09:36:00,
2013-01-09 02:41:00,51.7,26.1,29.56,NW,314,6.7,7.4,36,-99.99,,,0.00,0,rob ver 1A,2013-01-09 09:41:00,
2013-01-09 02:46:00,52.3,26.3,29.56,NW,326,4.8,6.6,35,-99.99,,,0.00,0,rob ver 1A,2013-01-09 09:46:00,
2013-01-09 02:51:00,52.7,25.6,29.56,NNW,339,4.1,4.7,34,-99.99,,,0.00,0,rob ver 1A,2013-01-09 09:51:00,
2013-01-09 02:56:00,52.9,25.4,29.56,NNW,342,5.2,5.8,34,-99.99,,,0.00,0,rob ver 1A,2013-01-09 09:56:00,
2013-01-09 03:01:00,53.1,25.4,29.56,NW,321,4.8,5.6,33,-99.99,,,0.00,0,rob ver 1A,2013-01-09 10:01:00,
2013-01-09 03:06:00,53.2,25.3,29.56,NW,322,3.9,4.4,33,-99.99,,,0.00,0,rob ver 1B,2013-01-09 10:06:00,
2013-01-09 03:11:00,52.4,25.0,29.56,WSW,246,1.5,1.9,34,-99.99,,,0.00,0,rob ver 1A,2013-01-09 10:11:00,
2013-01-09 03:16:00,51.2,25.7,29.56,WNW,295,2.0,2.7,36,-99.99,,,0.00,0,rob ver 1A,2013-01-09 10:16:00,
2013-01-09 03:21:00,52.1,25.2,29.56,NW,316,3.1,3.6,34,-99.99,,,0.00,0,rob ver 1A,2013-01-09 10:21:00,
2013-01-09 03:26:00,51.4,25.2,29.59,WSW,256,1.1,1.5,36,-99.99,,,0.00,0,rob ver 1A,2013-01-09 10:26:00,
2013-01-09 03:31:00,49.9,25.1,29.59,SSE,151,3.4,3.7,38,-99.99,,,0.00,0,rob ver 1A,2013-01-09 10:31:00,
2013-01-09 03:36:00,50.1,26.1,29.59,SE,132,3.8,4.1,38,-99.99,,,0.00,0,rob ver 1A,2013-01-09 10:36:00,
2013-01-09 03:41:00,51.3,25.7,29.59,NNW,329,1.6,2.9,36,-99.99,,,0.00,0,rob ver 1A,2013-01-09 10:41:00,
2013-01-09 03:46:00,55.3,25.4,29.59,WNW,290,3.8,7.2,31,-99.99,,,0.00,0,rob ver 1A,2013-01-09 10:46:00,
2013-01-09 03:51:00,56.1,25.4,29.56,NW,308,4.0,5.1,30,-99.99,,,0.00,0,rob ver 1A,2013-01-09 10:51:00,
2013-01-09 03:56:00,55.7,25.4,29.56,WNW,296,4.8,7.1,30,-99.99,,,0.00,0,rob ver 1A,2013-01-09 10:56:00,
2013-01-09 04:01:00,54.5,25.1,29.59,NW,316,3.4,3.8,31,-99.99,,,0.00,0,rob ver 1A,2013-01-09 11:01:00,
2013-01-09 04:06:00,53.6,25.0,29.59,NNW,347,3.5,4.1,32,-99.99,,,0.00,0,rob ver 1A,2013-01-09 11:06:00,
2013-01-09 04:11:00,52.7,24.9,29.56,NW,325,4.4,5.5,33,-99.99,,,0.00,0,rob ver 1A,2013-01-09 11:11:00,
2013-01-09 04:17:00,52.8,24.9,29.56,NW,316,6.9,9.1,33,-99.99,,,0.00,0,rob ver 1A,2013-01-09 11:17:00,
2013-01-09 04:22:00,53.6,25.3,29.56,NW,317,6.6,8.5,33,-99.99,,,0.00,0,rob ver 1A,2013-01-09 11:22:00,
2013-01-09 04:27:00,52.6,24.5,29.56,North,356,4.0,5.1,33,-99.99,,,0.00,0,rob ver 1A,2013-01-09 11:27:00,
2013-01-09 04:32:00,50.7,24.9,29.56,North,359,3.0,3.4,36,-99.99,,,0.00,0,rob ver 1A,2013-01-09 11:32:00,
2013-01-09 04:37:00,49.2,24.1,29.56,SE,146,1.4,2.3,37,-99.99,,,0.00,0,rob ver 1A,2013-01-09 11:37:00,
2013-01-09 04:42:00,49.7,25.6,29.56,South,191,0.8,0.9,38,-99.99,,,0.00,0,rob ver 1A,2013-01-09 11:42:00,
2013-01-09 04:47:00,50.3,25.7,29.56,WSW,239,2.7,3.6,37,-99.99,,,0.00,0,rob ver 1A,2013-01-09 11:47:00,
2013-01-09 04:52:00,50.4,25.5,29.56,West,278,2.4,2.7,37,-99.99,,,0.00,0,rob ver 1A,2013-01-09 11:52:00,
2013-01-09 04:57:00,49.7,25.6,29.59,NNE,18,2.7,3.2,38,-99.99,,,0.00,0,rob ver 1A,2013-01-09 11:57:00,
2013-01-09 05:02:00,49.1,24.6,29.59,NE,50,3.4,4.5,38,-99.99,,,0.00,0,rob ver 1A,2013-01-09 12:02:00,
2013-01-09 05:07:00,48.0,24.7,29.59,North,8,2.7,3.1,39,-99.99,,,0.00,0,rob ver 1A,2013-01-09 12:07:00,
2013-01-09 05:12:00,47.7,24.9,29.59,NNE,20,5.8,6.2,40,-99.99,,,0.00,0,rob ver 1A,2013-01-09 12:12:00,
2013-01-09 05:17:00,48.4,25.3,29.59,NNE,16,6.4,7.9,39,-99.99,,,0.00,0,rob ver 1A,2013-01-09 12:17:00,
2013-01-09 05:22:00,49.9,25.4,29.59,NNE,17,6.7,7.6,38,-99.99,,,0.00,0,rob ver 1B,2013-01-09 12:22:00,
2013-01-09 05:27:00,51.0,25.2,29.59,NNW,340,5.5,7.0,36,-99.99,,,0.00,0,rob ver 1A,2013-01-09 12:27:00,
2013-01-09 05:32:00,52.4,24.8,29.59,NNE,12,5.4,5.8,33,-99.99,,,0.00,0,rob ver 1A,2013-01-09 12:32:00,
2013-01-09 05:37:00,51.2,25.0,29.59,NNE,15,5.8,6.2,35,-99.99,,,0.00,0,rob ver 1A,2013-01-09 12:37:00,
2013-01-09 05:42:00,50.6,25.0,29.59,NNE,20,3.8,4.1,36,-99.99,,,0.00,0,rob ver 1A,2013-01-09 12:42:00,
2013-01-09 05:47:00,49.6,25.3,29.59,NNE,22,4.2,4.4,38,-99.99,,,0.00,0,rob ver 1A,2013-01-09 12:47:00,
2013-01-09 05:52:00,51.6,24.6,29.59,North,4,3.3,3.4,34,-99.99,,,0.00,0,rob ver 1A,2013-01-09 12:52:00,
2013-01-09 05:57:00,50.8,24.7,29.59,NNE,12,3.4,3.9,36,-99.99,,,0.00,0,rob ver 1A,2013-01-09 12:57:00,
2013-01-09 06:02:00,51.2,24.6,29.59,North,2,4.8,4.9,34,-99.99,,,0.00,0,rob ver 1A,2013-01-09 13:02:00,
2013-01-09 06:07:00,52.4,24.7,29.59,North,0,5.3,5.9,33,-99.99,,,0.00,0,rob ver 1B,2013-01-09 13:07:00,
2013-01-09 06:12:00,52.7,24.7,29.59,North,10,7.0,7.1,33,-99.99,,,0.00,0,rob ver 1A,2013-01-09 13:12:00,
2013-01-09 06:17:00,50.0,24.9,29.59,NNE,15,7.2,7.5,37,-99.99,,,0.00,0,rob ver 1A,2013-01-09 13:17:00,
2013-01-09 06:22:00,49.9,24.6,29.59,NE,51,2.0,4.4,36,-99.99,,,0.00,0,rob ver 1A,2013-01-09 13:22:00,
2013-01-09 06:27:00,47.8,24.8,29.59,SSE,163,1.6,2.4,40,-99.99,,,0.00,0,rob ver 1A,2013-01-09 13:27:00,
2013-01-09 06:33:00,47.9,24.6,29.59,ENE,58,4.0,5.1,39,-99.99,,,0.00,0,rob ver 1A,2013-01-09 13:33:00,
2013-01-09 06:38:00,47.4,24.8,29.62,NE,40,6.8,8.4,40,-99.99,,,0.00,0,rob ver 1A,2013-01-09 13:38:00,
2013-01-09 06:43:00,49.2,24.7,29.59,NE,34,9.5,10.4,37,-99.99,,,0.00,0,rob ver 1A,2013-01-09 13:43:00,
2013-01-09 06:48:00,48.8,24.7,29.59,NNE,27,8.9,10.0,38,-99.99,,,0.00,0,rob ver 1A,2013-01-09 13:48:00,
2013-01-09 06:53:00,51.5,23.8,29.59,NNE,30,8.4,10.0,32,-99.99,,,0.00,0,rob ver 1A,2013-01-09 13:53:00,
2013-01-09 06:58:00,52.5,24.1,29.62,NNE,28,7.4,7.9,32,-99.99,,,0.00,0,rob ver 1A,2013-01-09 13:58:00,
2013-01-09 07:03:00,51.2,23.8,29.62,NNE,33,6.7,7.1,33,-99.99,,,0.00,0,rob ver 1A,2013-01-09 14:03:00,
2013-01-09 07:08:00,50.9,23.7,29.62,NNE,29,6.7,7.1,34,-99.99,,,0.00,0,rob ver 1A,2013-01-09 14:08:00,
2013-01-09 07:13:00,50.1,23.6,29.62,NNE,16,5.8,6.2,35,-99.99,,,0.00,0,rob ver 1A,2013-01-09 14:13:00,
2013-01-09 07:18:00,50.6,23.5,29.62,NNE,23,6.5,6.9,34,-99.99,,,0.00,0,rob ver 1A,2013-01-09 14:18:00,
2013-01-09 07:23:00,50.4,23.4,29.62,NNE,29,6.1,6.4,34,-99.99,,,0.00,.329,rob ver 1A,2013-01-09 14:23:00,
2013-01-09 07:28:00,50.1,23.3,29.62,NNE,23,4.8,5.3,34,-99.99,,,0.00,2.794,rob ver 1A,2013-01-09 14:28:00,
2013-01-09 07:33:00,49.7,23.5,29.62,NNE,32,4.9,5.4,35,-99.99,,,0.00,5.916,rob ver 1A,2013-01-09 14:33:00,
2013-01-09 07:38:00,50.8,23.3,29.62,NNE,20,6.4,6.7,33,-99.99,,,0.00,7.89,rob ver 1A,2013-01-09 14:38:00,
2013-01-09 07:43:00,50.7,23.2,29.62,NNE,23,5.6,6.3,33,-99.99,,,0.00,7.89,rob ver 1A,2013-01-09 14:43:00,
2013-01-09 07:48:00,50.3,23.2,29.62,NE,36,5.1,5.5,34,-99.99,,,0.00,23.17,rob ver 1A,2013-01-09 14:48:00,
2013-01-09 07:53:00,50.5,23.3,29.62,NNE,30,6.1,6.6,34,-99.99,,,0.00,36.81,rob ver 1A,2013-01-09 14:53:00,
2013-01-09 07:58:00,50.4,23.3,29.65,NE,34,5.7,6.6,34,-99.99,,,0.00,49.96,rob ver 1A,2013-01-09 14:58:00,
2013-01-09 08:03:00,50.7,23.3,29.65,NNE,30,7.2,8.0,34,-99.99,,,0.00,67.71,rob ver 1A,2013-01-09 15:03:00,
2013-01-09 08:08:00,50.6,23.3,29.65,NNE,26,7.8,8.7,34,-99.99,,,0.00,69.02,rob ver 1A,2013-01-09 15:08:00,
2013-01-09 08:13:00,50.5,23.4,29.65,NNE,30,6.8,7.9,34,-99.99,,,0.00,77.6,rob ver 1A,2013-01-09 15:13:00,
2013-01-09 08:18:00,51.0,23.5,29.65,NNE,29,6.6,7.6,33,-99.99,,,0.00,90.7,rob ver 1A,2013-01-09 15:18:00,
2013-01-09 08:23:00,50.5,23.6,29.65,NNE,29,6.1,7.6,34,-99.99,,,0.00,96.5,rob ver 1A,2013-01-09 15:23:00,
2013-01-09 08:28:00,50.1,23.8,29.65,NE,35,6.1,7.5,35,-99.99,,,0.00,103.5,rob ver 1A,2013-01-09 15:28:00,
2013-01-09 08:33:00,50.4,23.7,29.65,NE,36,7.1,8.6,34,-99.99,,,0.00,116.7,rob ver 1A,2013-01-09 15:33:00,
2013-01-09 08:38:00,51.0,23.7,29.65,NE,40,6.1,7.6,34,-99.99,,,0.00,126.7,rob ver 1A,2013-01-09 15:38:00,
2013-01-09 08:44:00,51.7,23.7,29.65,NE,42,5.7,6.8,33,-99.99,,,0.00,135.3,rob ver 1A,2013-01-09 15:44:00,
2013-01-09 08:49:00,52.0,23.9,29.65,NE,45,5.1,6.0,33,-99.99,,,0.00,133.3,rob ver 1A,2013-01-09 15:49:00,
2013-01-09 08:54:00,52.6,24.0,29.65,ENE,57,5.1,6.3,32,-99.99,,,0.00,182.7,rob ver 1A,2013-01-09 15:54:00,
2013-01-09 08:59:00,53.0,23.9,29.65,ENE,57,5.3,7.4,31,-99.99,,,0.00,164.3,rob ver 1A,2013-01-09 15:59:00,
2013-01-09 09:04:00,53.3,24.0,29.65,NE,50,4.9,6.6,31,-99.99,,,0.00,201.1,rob ver 1B,2013-01-09 16:04:00,
2013-01-09 09:09:00,54.0,24.2,29.65,NE,51,5.1,6.6,31,-99.99,,,0.00,223.5,rob ver 1A,2013-01-09 16:09:00,
2013-01-09 09:14:00,54.3,24.2,29.65,NE,46,5.7,7.5,30,-99.99,,,0.00,219.6,rob ver 1A,2013-01-09 16:14:00,
2013-01-09 09:19:00,54.7,24.0,29.65,NE,48,6.4,9.0,30,-99.99,,,0.00,243.2,rob ver 1A,2013-01-09 16:19:00,
2013-01-09 09:24:00,55.2,24.2,29.65,NE,44,5.8,7.2,29,-99.99,,,0.00,269.5,rob ver 1A,2013-01-09 16:24:00,
2013-01-09 09:29:00,55.8,24.2,29.65,NE,42,5.9,7.3,29,-99.99,,,0.00,284.1,rob ver 1A,2013-01-09 16:29:00,
2013-01-09 09:34:00,56.3,24.2,29.65,NE,51,5.2,7.5,28,-99.99,,,0.00,309.6,rob ver 1A,2013-01-09 16:34:00,
2013-01-09 09:39:00,56.5,24.2,29.65,ENE,61,5.6,7.6,28,-99.99,,,0.00,277,rob ver 1B,2013-01-09 16:39:00,
2013-01-09 09:44:00,56.7,24.1,29.65,ENE,60,6.7,8.6,28,-99.99,,,0.00,243.8,rob ver 1A,2013-01-09 16:44:00,
2013-01-09 09:49:00,57.3,24.2,29.65,ENE,61,4.9,6.3,27,-99.99,,,0.00,292.6,rob ver 1B,2013-01-09 16:49:00,
2013-01-09 09:55:00,57.8,23.9,29.65,NE,53,4.2,5.7,26,-99.99,,,0.00,293.7,rob ver 1B,2013-01-09 16:55:00,
2013-01-09 10:00:00,58.5,23.8,29.65,NE,56,4.5,6.2,25,-99.99,,,0.00,325.9,rob ver 1B,2013-01-09 17:00:00,
2013-01-09 10:05:00,59.0,23.8,29.65,ENE,58,4.8,6.3,25,-99.99,,,0.00,362.1,rob ver 1A,2013-01-09 17:05:00,
2013-01-09 10:10:00,59.5,23.9,29.65,ENE,60,5.3,6.2,25,-99.99,,,0.00,385.7,rob ver 1A,2013-01-09 17:10:00,
2013-01-09 10:15:00,59.9,24.1,29.65,ENE,67,3.9,5.4,25,-99.99,,,0.00,372.6,rob ver 1A,2013-01-09 17:15:00,
2013-01-09 10:20:00,60.3,24.0,29.65,East,86,4.6,5.8,24,-99.99,,,0.00,358.7,rob ver 1A,2013-01-09 17:20:00,
2013-01-09 10:25:00,60.8,24.0,29.65,ENE,70,5.0,6.1,24,-99.99,,,0.00,415.9,rob ver 1A,2013-01-09 17:25:00,
2013-01-09 10:30:00,61.1,23.9,29.65,East,98,6.0,6.9,23,-99.99,,,0.00,339.3,rob ver 1A,2013-01-09 17:30:00,
2013-01-09 10:35:00,61.2,24.3,29.65,East,96,4.1,5.3,24,-99.99,,,0.00,423.7,rob ver 1A,2013-01-09 17:35:00,
2013-01-09 10:41:00,61.8,23.9,29.65,East,88,5.4,6.5,23,-99.99,,,0.00,429.3,rob ver 1A,2013-01-09 17:41:00,
2013-01-09 10:46:00,62.6,24.4,29.65,NE,52,5.3,7.0,22,-99.99,,,0.00,511.2,rob ver 1A,2013-01-09 17:46:00,
2013-01-09 10:51:00,62.8,24.6,29.65,ENE,71,4.0,5.3,22,-99.99,,,0.00,434.5,rob ver 1A,2013-01-09 17:51:00,
2013-01-09 10:56:00,63.0,24.3,29.65,ENE,76,5.2,6.9,22,-99.99,,,0.00,464.9,rob ver 1B,2013-01-09 17:56:00,
2013-01-09 11:01:00,63.9,24.3,29.65,East,88,4.6,6.5,22,-99.99,,,0.00,522.8,rob ver 1A,2013-01-09 18:01:00,
2013-01-09 11:06:00,65.0,24.5,29.65,ENE,61,4.1,5.8,21,-99.99,,,0.00,508,rob ver 1A,2013-01-09 18:06:00,
2013-01-09 11:11:00,65.3,24.2,29.65,ENE,70,2.3,3.2,20,-99.99,,,0.00,545.8,rob ver 1A,2013-01-09 18:11:00,
2013-01-09 11:16:00,65.6,24.5,29.65,NNE,25,3.3,4.3,20,-99.99,,,0.00,460.2,rob ver 1A,2013-01-09 18:16:00,
2013-01-09 11:21:00,65.3,24.4,29.65,East,86,4.6,6.0,21,-99.99,,,0.00,546.4,rob ver 1A,2013-01-09 18:21:00,
2013-01-09 11:26:00,65.4,24.5,29.65,East,84,4.4,6.6,20,-99.99,,,0.00,491.2,rob ver 1A,2013-01-09 18:26:00,
2013-01-09 11:31:00,65.9,24.7,29.65,ENE,77,5.4,8.2,20,-99.99,,,0.00,570.9,rob ver 1A,2013-01-09 18:31:00,
2013-01-09 11:36:00,65.8,24.3,29.65,East,88,2.0,5.3,20,-99.99,,,0.00,475.9,rob ver 1A,2013-01-09 18:36:00,
2013-01-09 11:41:00,66.2,24.1,29.62,East,89,7.0,8.7,20,-99.99,,,0.00,588.9,rob ver 1A,2013-01-09 18:41:00,
2013-01-09 11:42:00,65.7,23.9,29.62,East,97,5.1,7.6,20,-99.99,,,0.00,605.8,rob ver 1B,2013-01-09 18:42:00,
2013-01-09 11:43:00,65.9,24.3,29.62,East,82,5.6,8.2,20,-99.99,,,0.00,580.4,rob ver 1A,2013-01-09 18:43:00,
2013-01-09 11:44:00,66.0,24.1,29.62,East,79,4.7,7.3,20,-99.99,,,0.00,581.7,rob ver 1A,2013-01-09 18:44:00,
2013-01-09 11:45:00,66.1,24.1,29.62,ENE,61,2.0,4.4,20,-99.99,,,0.00,531.3,rob ver 1B,2013-01-09 18:45:00,
2013-01-09 11:48:00,66.4,24.0,29.62,ESE,112,5.8,6.7,20,-99.99,,,0.00,492.5,rob ver 1A,2013-01-09 18:48:00,
2013-01-09 11:49:00,66.2,24.1,29.62,ESE,112,5.2,6.6,20,-99.99,,,0.00,535,rob ver 1B,2013-01-09 18:49:00,
2013-01-09 11:50:00,66.1,24.1,29.62,ESE,113,4.4,5.6,20,-99.99,,,0.00,543.2,rob ver 1B,2013-01-09 18:50:00,
2013-01-09 11:51:00,66.2,24.1,29.62,ESE,108,3.2,4.9,20,-99.99,,,0.00,542.9,rob ver 1A,2013-01-09 18:51:00,
2013-01-09 11:56:00,66.4,24.2,29.62,East,86,5.6,7.8,20,-99.99,,,0.00,498.6,rob ver 1A,2013-01-09 18:56:00,
2013-01-09 12:01:00,66.8,24.2,29.62,East,98,6.0,7.1,19,-99.99,,,0.00,537,rob ver 1A,2013-01-09 19:01:00,
2013-01-09 12:06:00,66.8,24.1,29.62,ESE,120,4.5,7.0,19,-99.99,,,0.00,609,rob ver 1A,2013-01-09 19:06:00,
2013-01-09 12:11:00,67.7,24.3,29.62,East,85,2.5,3.9,19,-99.99,,,0.00,582.2,rob ver 1A,2013-01-09 19:11:00,
2013-01-09 12:16:00,68.2,24.5,29.62,ENE,71,5.9,8.6,18,-99.99,,,0.00,597.4,rob ver 1A,2013-01-09 19:16:00,
2013-01-09 12:21:00,68.3,24.6,29.59,East,81,6.4,8.5,18,-99.99,,,0.00,556.2,rob ver 1A,2013-01-09 19:21:00,
2013-01-09 12:26:00,67.9,24.1,29.59,ESE,113,5.3,7.7,18,-99.99,,,0.00,521.9,rob ver 1B,2013-01-09 19:26:00,
2013-01-09 12:31:00,68.3,24.3,29.59,NE,52,6.0,8.8,18,-99.99,,,0.00,534.2,rob ver 1A,2013-01-09 19:31:00,
2013-01-09 12:36:00,68.8,24.3,29.59,ENE,61,4.2,5.3,18,-99.99,,,0.00,575.9,rob ver 1A,2013-01-09 19:36:00,
2013-01-09 12:42:00,68.8,24.1,29.59,ENE,58,6.1,8.1,18,-99.99,,,0.00,592,rob ver 1A,2013-01-09 19:42:00,
2013-01-09 12:47:00,69.2,23.7,29.59,NE,56,3.1,4.5,17,-99.99,,,0.00,566.3,rob ver 1A,2013-01-09 19:47:00,
2013-01-09 12:52:00,69.9,23.9,29.59,NE,39,4.2,6.2,17,-99.99,,,0.00,530.2,rob ver 1A,2013-01-09 19:52:00,
2013-01-09 12:57:00,69.6,23.7,29.59,NNE,13,7.4,9.8,17,-99.99,,,0.00,550.5,rob ver 1A,2013-01-09 19:57:00,
2013-01-09 13:02:00,69.7,23.7,29.56,NNE,14,5.7,7.0,17,-99.99,,,0.00,408.8,rob ver 1A,2013-01-09 20:02:00,
2013-01-09 13:07:00,70.4,24.2,29.56,NE,50,2.4,3.3,17,-99.99,,,0.00,557.4,rob ver 1A,2013-01-09 20:07:00,
2013-01-09 13:12:00,70.7,23.9,29.56,NW,317,2.0,3.1,16,-99.99,,,0.00,502.9,rob ver 1A,2013-01-09 20:12:00,
2013-01-09 13:17:00,72.5,23.8,29.56,North,352,0.9,1.8,15,-99.99,,,0.00,513.1,rob ver 1A,2013-01-09 20:17:00,
2013-01-09 13:22:00,71.7,23.4,29.56,SSE,164,1.4,2.1,16,-99.99,,,0.00,575,rob ver 1A,2013-01-09 20:22:00,
2013-01-09 13:27:00,72.2,23.3,29.56,South,186,2.0,2.7,15,-99.99,,,0.00,420.5,rob ver 1A,2013-01-09 20:27:00,
2013-01-09 13:32:00,71.5,23.8,29.56,ESE,113,2.3,3.5,16,-99.99,,,0.00,582.7,rob ver 1A,2013-01-09 20:32:00,
2013-01-09 13:37:00,72.5,23.6,29.56,SSW,196,2.4,3.7,15,-99.99,,,0.00,575.3,rob ver 1A,2013-01-09 20:37:00,
2013-01-09 13:42:00,72.1,23.3,29.56,South,174,2.6,3.3,15,-99.99,,,0.00,526.6,rob ver 1A,2013-01-09 20:42:00,
2013-01-09 13:47:00,70.0,24.0,29.56,West,266,4.8,6.6,17,-99.99,,,0.00,307.7,rob ver 1B,2013-01-09 20:47:00,
2013-01-09 13:53:00,70.1,24.2,29.56,SSW,212,1.3,2.6,17,-99.99,,,0.00,458.9,rob ver 1A,2013-01-09 20:53:00,
2013-01-09 13:58:00,71.2,24.3,29.53,West,268,3.1,4.5,17,-99.99,,,0.00,316.8,rob ver 1A,2013-01-09 20:58:00,
2013-01-09 14:03:00,70.3,24.1,29.56,SSW,210,3.0,3.6,17,-99.99,,,0.00,393.4,rob ver 1B,2013-01-09 21:03:00,
2013-01-09 14:08:00,70.4,24.5,29.53,SSW,205,6.3,8.1,17,-99.99,,,0.00,493.1,rob ver 1A,2013-01-09 21:08:00,
2013-01-09 14:13:00,70.9,24.2,29.53,WSW,239,6.2,7.4,17,-99.99,,,0.00,482.9,rob ver 1A,2013-01-09 21:13:00,
2013-01-09 14:18:00,70.6,24.1,29.53,WSW,252,3.4,5.4,17,-99.99,,,0.00,480.3,rob ver 1A,2013-01-09 21:18:00,
2013-01-09 14:23:00,70.5,24.0,29.53,SSW,199,5.2,6.8,17,-99.99,,,0.00,453.6,rob ver 1A,2013-01-09 21:23:00,
2013-01-09 14:28:00,70.5,24.0,29.53,SSW,204,3.8,5.7,17,-99.99,,,0.00,486.4,rob ver 1A,2013-01-09 21:28:00,
2013-01-09 14:33:00,70.9,23.9,29.53,SSW,204,3.7,4.8,16,-99.99,,,0.00,554.3,rob ver 1A,2013-01-09 21:33:00,
2013-01-09 14:38:00,71.2,23.9,29.53,SW,228,5.7,7.9,16,-99.99,,,0.00,490.6,rob ver 1B,2013-01-09 21:38:00,
2013-01-09 14:43:00,71.2,23.9,29.53,SSE,165,4.1,5.5,16,-99.99,,,0.00,517.9,rob ver 1A,2013-01-09 21:43:00,
2013-01-09 14:48:00,71.4,24.4,29.53,SSW,198,3.5,4.4,17,-99.99,,,0.00,470.8,rob ver 1A,2013-01-09 21:48:00,
2013-01-09 14:53:00,71.7,24.4,29.53,SW,218,3.0,4.2,16,-99.99,,,0.00,422.3,rob ver 1A,2013-01-09 21:53:00,
2013-01-09 14:58:00,71.0,24.0,29.53,WSW,243,4.3,7.2,16,-99.99,,,0.00,448.7,rob ver 1A,2013-01-09 21:58:00,
2013-01-09 15:03:00,71.5,24.3,29.53,South,183,3.6,5.2,16,-99.99,,,0.00,408.7,rob ver 1A,2013-01-09 22:03:00,
2013-01-09 15:09:00,70.6,24.2,29.53,SSE,159,3.8,4.9,17,-99.99,,,0.00,326.3,rob ver 1A,2013-01-09 22:09:00,
2013-01-09 15:14:00,71.0,24.3,29.53,South,184,4.3,5.7,17,-99.99,,,0.00,434.1,rob ver 1A,2013-01-09 22:14:00,
2013-01-09 15:19:00,71.2,24.5,29.53,South,180,3.6,4.9,17,-99.99,,,0.00,342.7,rob ver 1A,2013-01-09 22:19:00,
2013-01-09 15:24:00,71.3,24.1,29.53,SSE,164,3.8,4.6,16,-99.99,,,0.00,385.4,rob ver 1B,2013-01-09 22:24:00,
2013-01-09 15:29:00,71.1,24.1,29.53,SSE,161,6.5,7.4,16,-99.99,,,0.00,378.6,rob ver 1A,2013-01-09 22:29:00,
2013-01-09 15:34:00,71.4,24.5,29.53,SSW,193,7.6,10.6,17,-99.99,,,0.00,376,rob ver 1A,2013-01-09 22:34:00,
2013-01-09 15:39:00,71.2,24.3,29.53,SSW,198,4.0,5.4,17,-99.99,,,0.00,336.5,rob ver 1A,2013-01-09 22:39:00,
2013-01-09 15:44:00,71.3,24.5,29.53,South,179,6.7,8.2,17,-99.99,,,0.00,370.1,rob ver 1A,2013-01-09 22:44:00,
2013-01-09 15:49:00,71.5,25.2,29.53,South,190,6.7,7.8,17,-99.99,,,0.00,245.8,rob ver 1A,2013-01-09 22:49:00,
2013-01-09 15:54:00,70.9,24.8,29.53,SSE,165,5.9,8.6,17,-99.99,,,0.00,204,rob ver 1A,2013-01-09 22:54:00,
2013-01-09 15:59:00,70.2,24.9,29.53,SSE,164,6.3,7.7,18,-99.99,,,0.00,131.8,rob ver 1A,2013-01-09 22:59:00,
2013-01-09 16:04:00,70.2,25.2,29.53,SSE,159,5.4,6.5,17,-99.99,,,0.00,171.9,rob ver 1A,2013-01-09 23:04:00,
2013-01-09 16:09:00,70.3,25.2,29.53,South,175,5.4,7.2,18,-99.99,,,0.00,115.4,rob ver 1A,2013-01-09 23:09:00,
2013-01-09 16:14:00,70.4,25.1,29.53,South,179,5.1,6.3,18,-99.99,,,0.00,302.1,rob ver 1A,2013-01-09 23:14:00,
2013-01-09 16:19:00,70.4,25.0,29.53,SSE,151,5.8,6.4,17,-99.99,,,0.00,291.6,rob ver 1A,2013-01-09 23:19:00,
2013-01-09 16:24:00,70.8,25.1,29.53,SE,136,5.9,6.8,17,-99.99,,,0.00,277.1,rob ver 1A,2013-01-09 23:24:00,
2013-01-09 16:29:00,70.4,24.8,29.53,SSE,151,5.6,6.9,17,-99.99,,,0.00,256.1,rob ver 1A,2013-01-09 23:29:00,
2013-01-09 16:34:00,70.2,25.0,29.53,SE,134,4.9,6.3,18,-99.99,,,0.00,184.7,rob ver 1A,2013-01-09 23:34:00,
2013-01-09 16:39:00,70.1,25.2,29.53,SE,140,4.4,6.5,18,-99.99,,,0.00,153.5,rob ver 1A,2013-01-09 23:39:00,
2013-01-09 16:44:00,69.9,25.2,29.53,SSE,160,4.2,5.1,18,-99.99,,,0.00,130.2,rob ver 1A,2013-01-09 23:44:00,
2013-01-09 16:49:00,69.8,24.8,29.50,SSE,155,4.1,4.7,18,-99.99,,,0.00,66.58,rob ver 1A,2013-01-09 23:49:00,
2013-01-09 16:54:00,69.3,25.6,29.50,SE,142,5.1,6.3,19,-99.99,,,0.00,65.27,rob ver 1A,2013-01-09 23:54:00,
2013-01-09 16:59:00,69.2,25.6,29.50,SE,138,5.3,6.0,19,-99.99,,,0.00,72.8,rob ver 1A,2013-01-09 23:59:00,
2013-01-09 17:04:00,69.1,25.2,29.50,SSE,147,5.8,6.7,19,-99.99,,,0.00,87.9,rob ver 1A,2013-01-10 00:04:00,
2013-01-09 17:09:00,68.7,25.7,29.50,SE,143,6.1,7.4,19,-99.99,,,0.00,79.4,rob ver 1A,2013-01-10 00:09:00,
2013-01-09 17:14:00,68.6,25.8,29.50,SE,137,6.1,7.0,19,-99.99,,,0.00,125.9,rob ver 1A,2013-01-10 00:14:00,
2013-01-09 17:19:00,68.5,25.7,29.50,SE,137,6.2,6.9,19,-99.99,,,0.00,99.1,rob ver 1A,2013-01-10 00:19:00,
2013-01-09 17:24:00,68.3,25.8,29.50,SE,141,5.8,6.6,20,-99.99,,,0.00,76.1,rob ver 1A,2013-01-10 00:24:00,
2013-01-09 17:30:00,68.1,25.8,29.50,SE,135,4.8,5.5,20,-99.99,,,0.00,66.26,rob ver 1A,2013-01-10 00:30:00,
2013-01-09 17:35:00,67.8,25.7,29.50,SE,134,4.6,5.6,20,-99.99,,,0.00,45.93,rob ver 1A,2013-01-10 00:35:00,
2013-01-09 17:40:00,67.3,25.4,29.50,SE,138,3.7,4.8,20,-99.99,,,0.00,32.97,rob ver 1A,2013-01-10 00:40:00,
2013-01-09 17:45:00,67.1,25.3,29.50,SSE,158,2.8,3.7,20,-99.99,,,0.00,17.06,rob ver 1A,2013-01-10 00:45:00,
2013-01-09 17:50:00,66.6,25.4,29.50,South,178,2.0,2.2,20,-99.99,,,0.00,7.22,rob ver 1B,2013-01-10 00:50:00,
2013-01-09 17:55:00,66.2,25.5,29.50,South,187,1.4,2.2,21,-99.99,,,0.00,3.609,rob ver 1A,2013-01-10 00:55:00,
2013-01-09 18:00:00,65.8,25.5,29.50,SSE,160,0.6,0.7,21,-99.99,,,0.00,1.641,rob ver 1A,2013-01-10 01:00:00,
2013-01-09 18:05:00,65.4,25.5,29.50,SSW,207,0.9,1.1,21,-99.99,,,0.00,.328,rob ver 1A,2013-01-10 01:05:00,
2013-01-09 18:10:00,65.0,25.4,29.50,SSE,158,1.2,1.5,22,-99.99,,,0.00,.164,rob ver 1A,2013-01-10 01:10:00,
2013-01-09 18:15:00,64.8,25.3,29.50,South,177,1.0,1.2,22,-99.99,,,0.00,0,rob ver 1A,2013-01-10 01:15:00,
2013-01-09 18:20:00,64.6,25.3,29.50,WSW,244,1.0,1.3,22,-99.99,,,0.00,0,rob ver 1A,2013-01-10 01:20:00,
2013-01-09 18:25:00,64.5,25.2,29.50,WNW,299,1.5,1.7,22,-99.99,,,0.00,0,rob ver 1A,2013-01-10 01:25:00,
2013-01-09 18:30:00,64.4,25.2,29.47,West,275,1.2,1.3,22,-99.99,,,0.00,0,rob ver 1A,2013-01-10 01:30:00,
2013-01-09 18:35:00,63.6,25.2,29.47,NW,326,1.3,1.4,23,-99.99,,,0.00,0,rob ver 1A,2013-01-10 01:35:00,
2013-01-09 18:40:00,63.4,25.2,29.47,NNW,328,0.8,1.0,23,-99.99,,,0.00,0,rob ver 1A,2013-01-10 01:40:00,
2013-01-09 18:45:00,64.0,25.1,29.47,NNW,347,0.8,1.0,22,-99.99,,,0.00,0,rob ver 1A,2013-01-10 01:45:00,
2013-01-09 18:50:00,64.0,25.1,29.47,North,9,1.9,2.1,22,-99.99,,,0.00,0,rob ver 1A,2013-01-10 01:50:00,
2013-01-09 18:55:00,64.4,25.1,29.47,NNE,18,1.8,2.1,22,-99.99,,,0.00,0,rob ver 1A,2013-01-10 01:55:00,
2013-01-09 19:00:00,64.1,25.1,29.47,North,350,0.5,0.8,22,-99.99,,,0.00,0,rob ver 1A,2013-01-10 02:00:00,
2013-01-09 19:05:00,64.0,25.0,29.47,WSW,253,0.2,0.3,22,-99.99,,,0.00,0,rob ver 1A,2013-01-10 02:05:00,
2013-01-09 19:10:00,63.1,24.7,29.47,NNE,19,0.7,0.9,22,-99.99,,,0.00,0,rob ver 1B,2013-01-10 02:10:00,
2013-01-09 19:16:00,62.3,25.0,29.47,NNW,342,0.8,1.0,23,-99.99,,,0.00,0,rob ver 1A,2013-01-10 02:16:00,
2013-01-09 19:21:00,62.2,25.1,29.47,WNW,291,1.2,1.4,24,-99.99,,,0.00,0,rob ver 1A,2013-01-10 02:21:00,
2013-01-09 19:26:00,62.2,25.1,29.47,SSE,158,0.3,0.6,24,-99.99,,,0.00,0,rob ver 1A,2013-01-10 02:26:00,
2013-01-09 19:31:00,62.1,25.0,29.47,ENE,69,0.4,0.9,24,-99.99,,,0.00,0,rob ver 1A,2013-01-10 02:31:00,
2013-01-09 19:36:00,62.2,24.9,29.47,SE,146,1.1,1.4,23,-99.99,,,0.00,0,rob ver 1A,2013-01-10 02:36:00,
2013-01-09 19:41:00,62.2,24.8,29.47,SE,132,1.5,1.9,23,-99.99,,,0.00,0,rob ver 1A,2013-01-10 02:41:00,
2013-01-09 19:46:00,61.8,24.6,29.47,ESE,121,1.5,1.9,23,-99.99,,,0.00,0,rob ver 1B,2013-01-10 02:46:00,
2013-01-09 19:51:00,61.5,24.5,29.47,SE,130,1.1,1.6,24,-99.99,,,0.00,0,rob ver 1A,2013-01-10 02:51:00,
2013-01-09 19:56:00,60.9,24.2,29.47,SSE,150,0.5,0.9,24,-99.99,,,0.00,0,rob ver 1A,2013-01-10 02:56:00,
2013-01-09 20:01:00,60.3,24.5,29.47,SE,141,1.6,2.0,25,-99.99,,,0.00,0,rob ver 1A,2013-01-10 03:01:00,
2013-01-09 20:06:00,60.3,24.3,29.47,SE,132,2.8,3.2,24,-99.99,,,0.00,0,rob ver 1A,2013-01-10 03:06:00,
2013-01-09 20:11:00,59.7,24.0,29.47,East,91,3.8,4.9,25,-99.99,,,0.00,0,rob ver 1A,2013-01-10 03:11:00,
2013-01-09 20:16:00,58.9,23.9,29.47,ENE,70,3.4,4.0,25,-99.99,,,0.00,0,rob ver 1A,2013-01-10 03:16:00,
2013-01-09 20:21:00,57.0,23.8,29.47,NE,47,4.5,5.1,27,-99.99,,,0.00,0,rob ver 1A,2013-01-10 03:21:00,
2013-01-09 20:26:00,56.2,24.0,29.47,NE,39,4.2,4.5,28,-99.99,,,0.00,0,rob ver 1A,2013-01-10 03:26:00,
2013-01-09 20:31:00,55.8,24.1,29.47,NE,37,4.5,4.8,29,-99.99,,,0.00,0,rob ver 1B,2013-01-10 03:31:00,
2013-01-09 20:36:00,56.1,24.3,29.47,NNE,30,4.7,5.1,29,-99.99,,,0.00,0,rob ver 1A,2013-01-10 03:36:00,
2013-01-09 20:41:00,55.8,24.1,29.47,NNE,25,3.8,4.5,29,-99.99,,,0.00,0,rob ver 1A,2013-01-10 03:41:00,
2013-01-09 20:46:00,55.6,24.4,29.47,NNE,16,4.2,4.7,29,-99.99,,,0.00,0,rob ver 1A,2013-01-10 03:46:00,
2013-01-09 20:51:00,55.4,24.3,29.47,NNE,26,3.8,4.2,29,-99.99,,,0.00,0,rob ver 1A,2013-01-10 03:51:00,
2013-01-09 20:56:00,55.6,24.6,29.47,NNE,26,3.6,4.0,29,-99.99,,,0.00,0,rob ver 1A,2013-01-10 03:56:00,
2013-01-09 21:02:00,55.7,24.7,29.47,NE,37,3.8,4.3,29,-99.99,,,0.00,0,rob ver 1A,2013-01-10 04:02:00,
2013-01-09 21:07:00,56.2,24.8,29.47,NE,40,4.4,4.9,29,-99.99,,,0.00,0,rob ver 1A,2013-01-10 04:07:00,
2013-01-09 21:12:00,56.3,24.8,29.47,NE,53,3.4,4.0,29,-99.99,,,0.00,0,rob ver 1A,2013-01-10 04:12:00,
2013-01-09 21:17:00,55.8,24.7,29.47,NE,46,3.3,3.6,29,-99.99,,,0.00,0,rob ver 1A,2013-01-10 04:17:00,
2013-01-09 21:22:00,57.2,24.9,29.47,NE,45,4.5,5.0,28,-99.99,,,0.00,0,rob ver 1A,2013-01-10 04:22:00,
2013-01-09 21:27:00,56.2,24.5,29.47,NE,47,5.2,6.0,29,-99.99,,,0.00,0,rob ver 1A,2013-01-10 04:27:00,
2013-01-09 21:32:00,55.2,24.5,29.47,NE,43,5.2,5.9,30,-99.99,,,0.00,0,rob ver 1A,2013-01-10 04:32:00,
2013-01-09 21:37:00,55.2,24.7,29.47,NE,34,5.5,6.2,30,-99.99,,,0.00,0,rob ver 1A,2013-01-10 04:37:00,
2013-01-09 21:42:00,55.4,24.7,29.47,NNE,29,5.5,6.2,30,-99.99,,,0.00,0,rob ver 1A,2013-01-10 04:42:00,
2013-01-09 21:47:00,55.1,24.7,29.47,NNE,33,4.5,5.3,30,-99.99,,,0.00,0,rob ver 1A,2013-01-10 04:47:00,
2013-01-09 21:52:00,55.0,24.6,29.47,NNE,31,3.5,4.2,30,-99.99,,,0.00,0,rob ver 1A,2013-01-10 04:52:00,
2013-01-09 21:57:00,54.8,24.7,29.47,NNE,32,4.2,5.1,30,-99.99,,,0.00,0,rob ver 1A,2013-01-10 04:57:00,
2013-01-09 22:00:00,54.9,24.7,29.47,NE,38,5.1,5.6,30,-99.99,,,0.00,0,rob ver 1B,2013-01-10 05:00:00,
2013-01-09 22:01:00,54.8,24.6,29.47,NE,38,5.1,5.4,30,-99.99,,,0.00,0,rob ver 1B,2013-01-10 05:01:00,
2013-01-09 22:02:00,54.7,24.5,29.47,NE,38,5.0,5.6,30,-99.99,,,0.00,0,rob ver 1A,2013-01-10 05:02:00,
2013-01-09 22:03:00,54.5,24.4,29.47,NE,38,5.4,5.8,30,-99.99,,,0.00,0,rob ver 1A,2013-01-10 05:03:00,
2013-01-09 22:08:00,53.7,24.4,29.47,NNE,28,4.7,5.5,31,-99.99,,,0.00,0,rob ver 1A,2013-01-10 05:08:00,
2013-01-09 22:13:00,53.2,24.4,29.47,NE,39,4.5,5.2,32,-99.99,,,0.00,0,rob ver 1A,2013-01-10 05:13:00,
2013-01-09 22:18:00,54.0,24.6,29.47,NE,38,5.7,6.2,31,-99.99,,,0.00,0,rob ver 1A,2013-01-10 05:18:00,
2013-01-09 22:23:00,53.7,24.5,29.47,NNE,32,5.0,6.1,32,-99.99,,,0.00,0,rob ver 1A,2013-01-10 05:23:00,
2013-01-09 22:28:00,53.2,24.3,29.47,NNE,26,2.9,3.4,32,-99.99,,,0.00,0,rob ver 1A,2013-01-10 05:28:00,
2013-01-09 22:33:00,52.6,24.3,29.47,NNE,21,4.5,4.8,32,-99.99,,,0.00,0,rob ver 1A,2013-01-10 05:33:00,
2013-01-09 22:38:00,52.9,24.4,29.47,NE,36,4.0,4.5,32,-99.99,,,0.00,0,rob ver 1A,2013-01-10 05:38:00,
2013-01-09 22:43:00,53.3,24.7,29.47,NE,42,5.3,6.4,32,-99.99,,,0.00,0,rob ver 1A,2013-01-10 05:43:00,
2013-01-09 22:48:00,53.4,24.7,29.47,NNE,32,7.1,7.8,32,-99.99,,,0.00,0,rob ver 1A,2013-01-10 05:48:00,
2013-01-09 22:53:00,54.0,24.9,29.47,NNE,31,7.1,8.1,31,-99.99,,,0.00,0,rob ver 1A,2013-01-10 05:53:00,
2013-01-09 22:59:00,54.1,24.8,29.47,NE,35,5.7,6.2,31,-99.99,,,0.00,0,rob ver 1B,2013-01-10 05:59:00,
2013-01-09 23:04:00,53.5,24.7,29.47,NE,35,7.4,8.3,32,-99.99,,,0.00,0,rob ver 1A,2013-01-10 06:04:00,
2013-01-09 23:09:00,54.1,25.0,29.44,NE,34,7.7,8.4,32,-99.99,,,0.00,0,rob ver 1A,2013-01-10 06:09:00,
2013-01-09 23:14:00,54.7,25.1,29.44,NNE,22,8.8,9.8,31,-99.99,,,0.00,0,rob ver 1A,2013-01-10 06:14:00,
2013-01-09 23:19:00,55.1,25.2,29.44,NNE,23,8.3,8.7,31,-99.99,,,0.00,0,rob ver 1A,2013-01-10 06:19:00,
2013-01-09 23:24:00,55.3,25.2,29.44,NNE,27,8.1,9.2,30,-99.99,,,0.00,0,rob ver 1A,2013-01-10 06:24:00,
2013-01-09 23:29:00,55.3,25.2,29.44,NNE,22,8.0,8.6,30,-99.99,,,0.00,0,rob ver 1A,2013-01-10 06:29:00,
2013-01-09 23:34:00,55.5,25.2,29.44,NNE,28,6.5,7.4,30,-99.99,,,0.00,0,rob ver 1A,2013-01-10 06:34:00,
2013-01-09 23:39:00,55.3,25.2,29.44,NNE,33,6.0,7.2,31,-99.99,,,0.00,0,rob ver 1A,2013-01-10 06:39:00,
2013-01-09 23:44:00,54.6,25.0,29.44,NNE,24,3.2,3.8,31,-99.99,,,0.00,0,rob ver 1A,2013-01-10 06:44:00,
2013-01-09 23:49:00,53.6,24.7,29.44,WNW,294,0.5,1.0,32,-99.99,,,0.00,0,rob ver 1A,2013-01-10 06:49:00,
2013-01-09 23:54:00,54.6,25.2,29.44,North,350,3.9,6.0,31,-99.99,,,0.00,0,rob ver 1A,2013-01-10 06:54:00,
2013-01-09 23:59:00,54.9,24.5,29.44,WSW,250,3.9,5.0,30,-99.99,,,0.00,0,rob ver 1B,2013-01-10 06:59:00,